FIN6Y EFHK-LIMC

Flight info

Callsign FIN6Y
Flight time 2h 42m
Altitude 34000
Route VALOX Y117 ROSAX DCT ANFEV DCT PENOR DCT SUBIX DCT LUROS DCT MAREM DCT RUDAP DCT EBEDA DCT BADVI DCT BERAS DCT OLPIX DCT EKPEB DCT RENTA DCT ATPED DCT LUSIL DCT EVRIP
Aircraft A321/M-SDE3FGHIRWY/LB1

Departure

Time 2026-02-18 07:52
Airport Helsinki Vantaa Airport (EFHK)

Arrival

Time 2026-02-18 10:34
Airport Milan Malpensa International Airport (LIMC)
Time Latitude Longitude Altitude Speed Heading
2026-02-18 07:03 60.31804 24.96386 172 ft 0 kts 137°
2026-02-18 07:38 60.31805 24.96384 172 ft 1 kts 137°
2026-02-18 07:38 60.31817 24.96363 172 ft 3 kts 137°
2026-02-18 07:39 60.31831 24.96337 172 ft 4 kts 138°
2026-02-18 07:39 60.31845 24.96318 172 ft 4 kts 180°
2026-02-18 07:39 60.31856 24.96326 172 ft 3 kts 227°
2026-02-18 07:39 60.31865 24.96345 172 ft 4 kts 227°
2026-02-18 07:40 60.31878 24.96375 172 ft 4 kts 227°
2026-02-18 07:40 60.31886 24.96392 172 ft 2 kts 227°
2026-02-18 07:42 60.31883 24.96386 172 ft 3 kts 227°
2026-02-18 07:42 60.31858 24.96305 172 ft 11 kts 251°
2026-02-18 07:42 60.31879 24.96123 172 ft 17 kts 313°
2026-02-18 07:42 60.31984 24.95926 177 ft 23 kts 317°
2026-02-18 07:43 60.32118 24.95680 178 ft 25 kts 317°
2026-02-18 07:43 60.32208 24.95515 179 ft 18 kts 317°
2026-02-18 07:43 60.32316 24.95314 182 ft 24 kts 319°
2026-02-18 07:43 60.32486 24.95177 185 ft 27 kts 342°
2026-02-18 07:44 60.32618 24.95093 185 ft 20 kts 342°
2026-02-18 07:44 60.32720 24.95050 184 ft 13 kts 24°
2026-02-18 07:44 60.32869 24.95369 184 ft 8 kts 39°
2026-02-18 07:45 60.32921 24.95296 182 ft 9 kts 313°
2026-02-18 07:45 60.32950 24.95241 181 ft 0 kts 319°
2026-02-18 07:49 60.32951 24.95240 181 ft 1 kts 319°
2026-02-18 07:49 60.32979 24.95193 181 ft 9 kts 321°
2026-02-18 07:49 60.32994 24.95037 181 ft 11 kts 284°
2026-02-18 07:50 60.32978 24.94881 182 ft 8 kts 223°
2026-02-18 07:50 60.32986 24.94741 184 ft 16 kts 317°
2026-02-18 07:50 60.33062 24.94601 190 ft 10 kts 317°
2026-02-18 07:50 60.33129 24.94477 195 ft 9 kts 317°
2026-02-18 07:51 60.33105 24.94370 195 ft 10 kts 227°
2026-02-18 07:51 60.33058 24.94264 194 ft 14 kts 227°
2026-02-18 07:51 60.32877 24.93869 188 ft 74 kts 227°
2026-02-18 07:51 60.32371 24.92753 177 ft 139 kts 227°
2026-02-18 07:52 60.31609 24.91070 290 ft 173 kts 227°
2026-02-18 07:52 60.30815 24.89320 982 ft 168 kts 225°
2026-02-18 07:52 60.29463 24.85413 1877 ft 183 kts 240°
2026-02-18 07:53 60.28757 24.83181 2176 ft 194 kts 233°
2026-02-18 07:53 60.27980 24.80889 2504 ft 207 kts 234°
2026-02-18 07:53 60.27166 24.78363 2788 ft 224 kts 234°
2026-02-18 07:53 60.26425 24.75469 3157 ft 240 kts 244°
2026-02-18 07:54 60.25805 24.72285 3705 ft 247 kts 245°
2026-02-18 07:54 60.25181 24.69045 4309 ft 250 kts 245°
2026-02-18 07:54 60.24546 24.65769 4939 ft 252 kts 244°
2026-02-18 07:54 60.23693 24.62707 5542 ft 250 kts 225°
2026-02-18 07:55 60.22336 24.60608 6125 ft 246 kts 205°
2026-02-18 07:55 60.20787 24.59125 6733 ft 248 kts 202°
2026-02-18 07:55 60.19724 24.58144 7154 ft 250 kts 202°
2026-02-18 07:55 60.18165 24.56686 7750 ft 251 kts 202°
2026-02-18 07:56 60.16576 24.55184 8331 ft 254 kts 202°
2026-02-18 07:56 60.14967 24.53653 8885 ft 257 kts 202°
2026-02-18 07:56 60.11719 24.50543 9984 ft 262 kts 202°
2026-02-18 07:57 60.10026 24.48919 10253 ft 277 kts 203°
2026-02-18 07:57 60.08240 24.47206 10456 ft 292 kts 203°
2026-02-18 07:57 60.06353 24.45396 10662 ft 307 kts 203°
2026-02-18 07:57 60.04389 24.43512 10977 ft 317 kts 203°
2026-02-18 07:58 60.02378 24.41587 11463 ft 322 kts 203°
2026-02-18 07:58 60.00351 24.39649 11976 ft 324 kts 203°
2026-02-18 07:58 59.98310 24.37701 12474 ft 326 kts 203°
2026-02-18 07:58 59.96254 24.35736 12969 ft 329 kts 202°
2026-02-18 07:59 59.94178 24.33757 13441 ft 332 kts 202°
2026-02-18 07:59 59.92082 24.31767 13962 ft 335 kts 203°
2026-02-18 07:59 59.89969 24.29762 14470 ft 337 kts 203°
2026-02-18 07:59 59.87845 24.27750 14950 ft 340 kts 203°
2026-02-18 08:00 59.85701 24.25719 15428 ft 342 kts 203°
2026-02-18 08:00 59.83542 24.23676 15904 ft 345 kts 203°
2026-02-18 08:00 59.79177 24.19556 16810 ft 350 kts 203°
2026-02-18 08:01 59.76967 24.17476 17251 ft 352 kts 203°
2026-02-18 08:01 59.74745 24.15387 17679 ft 355 kts 203°
2026-02-18 08:01 59.72560 24.13054 18092 ft 359 kts 210°
2026-02-18 08:01 59.70501 24.10222 18503 ft 362 kts 213°
2026-02-18 08:02 59.68451 24.07286 18887 ft 365 kts 213°
2026-02-18 08:02 59.66383 24.04332 19257 ft 368 kts 213°
2026-02-18 08:02 59.64292 24.01364 19618 ft 372 kts 213°
2026-02-18 08:02 59.62180 23.98379 19975 ft 375 kts 213°
2026-02-18 08:03 59.60077 23.95416 20318 ft 378 kts 213°
2026-02-18 08:03 59.57929 23.92394 20665 ft 381 kts 213°
2026-02-18 08:03 59.55766 23.89351 21001 ft 383 kts 213°
2026-02-18 08:03 59.53589 23.86291 21337 ft 386 kts 213°
2026-02-18 08:04 59.51391 23.83212 21674 ft 388 kts 213°
2026-02-18 08:04 59.49184 23.80120 21988 ft 391 kts 213°
2026-02-18 08:04 59.45105 23.72876 22606 ft 400 kts 223°
2026-02-18 08:05 59.43182 23.68906 22909 ft 402 kts 224°
2026-02-18 08:05 59.41251 23.64910 23200 ft 405 kts 224°
2026-02-18 08:05 59.39302 23.60898 23481 ft 407 kts 224°
2026-02-18 08:05 59.37341 23.56878 23762 ft 410 kts 223°
2026-02-18 08:06 59.35357 23.52836 24044 ft 412 kts 223°
2026-02-18 08:06 59.33361 23.48780 24320 ft 414 kts 223°
2026-02-18 08:06 59.31356 23.44712 24603 ft 416 kts 223°
2026-02-18 08:06 59.29336 23.40621 24884 ft 418 kts 223°
2026-02-18 08:07 59.27309 23.36523 25161 ft 420 kts 223°
2026-02-18 08:07 59.25271 23.32413 25435 ft 422 kts 223°
2026-02-18 08:07 59.23248 23.28338 25691 ft 423 kts 224°
2026-02-18 08:07 59.21194 23.24206 25947 ft 425 kts 223°
2026-02-18 08:08 59.19129 23.20064 26210 ft 427 kts 223°
2026-02-18 08:08 59.17052 23.15905 26468 ft 429 kts 223°
2026-02-18 08:08 59.12874 23.07556 26935 ft 431 kts 223°
2026-02-18 08:09 59.10774 23.03368 27161 ft 433 kts 223°
2026-02-18 08:09 59.08664 22.99174 27382 ft 435 kts 223°
2026-02-18 08:09 59.06538 22.94959 27617 ft 436 kts 223°
2026-02-18 08:09 59.04412 22.90745 27843 ft 438 kts 223°
2026-02-18 08:10 59.02273 22.86508 28064 ft 439 kts 223°
2026-02-18 08:10 59.00126 22.82273 28280 ft 440 kts 223°
2026-02-18 08:10 58.98001 22.78089 28482 ft 442 kts 223°
2026-02-18 08:10 58.95836 22.73833 28692 ft 443 kts 223°
2026-02-18 08:11 58.93664 22.69571 28896 ft 445 kts 223°
2026-02-18 08:11 58.91486 22.65305 29118 ft 445 kts 223°
2026-02-18 08:11 58.89312 22.61053 29373 ft 444 kts 223°
2026-02-18 08:11 58.87136 22.56806 29630 ft 444 kts 223°
2026-02-18 08:12 58.84963 22.52572 29864 ft 443 kts 223°
2026-02-18 08:12 58.82794 22.48355 30106 ft 443 kts 223°
2026-02-18 08:12 58.78449 22.39934 30573 ft 442 kts 223°
2026-02-18 08:13 58.76276 22.35737 30809 ft 441 kts 223°
2026-02-18 08:13 58.74135 22.31605 31021 ft 441 kts 223°
2026-02-18 08:13 58.71967 22.27433 31246 ft 440 kts 223°
2026-02-18 08:13 58.69803 22.23272 31463 ft 440 kts 223°
2026-02-18 08:14 58.67637 22.19121 31669 ft 439 kts 224°
2026-02-18 08:14 58.65470 22.14973 31861 ft 439 kts 224°
2026-02-18 08:14 58.63305 22.10840 32050 ft 439 kts 224°
2026-02-18 08:14 58.61145 22.06714 32253 ft 439 kts 224°
2026-02-18 08:15 58.58982 22.02588 32445 ft 438 kts 224°
2026-02-18 08:15 58.56810 21.98461 32638 ft 438 kts 224°
2026-02-18 08:15 58.54641 21.94348 32809 ft 438 kts 224°
2026-02-18 08:15 58.52477 21.90252 32979 ft 438 kts 224°
2026-02-18 08:16 58.50308 21.86150 33146 ft 438 kts 224°
2026-02-18 08:16 58.48142 21.82063 33298 ft 438 kts 224°
2026-02-18 08:16 58.45972 21.77978 33475 ft 438 kts 224°
2026-02-18 08:16 58.43798 21.73891 33645 ft 437 kts 224°
2026-02-18 08:17 58.41629 21.69818 33796 ft 437 kts 224°
2026-02-18 08:17 58.37316 21.61750 34021 ft 438 kts 224°
2026-02-18 08:18 58.32965 21.53633 34000 ft 437 kts 224°
2026-02-18 08:18 58.28609 21.45544 33973 ft 438 kts 224°
2026-02-18 08:19 58.24242 21.37462 33958 ft 438 kts 224°
2026-02-18 08:19 58.19867 21.29392 33960 ft 438 kts 224°
2026-02-18 08:20 58.15492 21.21351 33965 ft 438 kts 224°
2026-02-18 08:20 58.11112 21.13333 33961 ft 438 kts 224°
2026-02-18 08:21 58.06720 21.05318 33958 ft 438 kts 223°
2026-02-18 08:21 58.00126 20.93336 33953 ft 438 kts 223°
2026-02-18 08:22 57.95745 20.85414 33952 ft 439 kts 223°
2026-02-18 08:22 57.91337 20.77468 33949 ft 438 kts 223°
2026-02-18 08:23 57.86925 20.69548 33947 ft 439 kts 223°
2026-02-18 08:23 57.82495 20.61628 33937 ft 439 kts 223°
2026-02-18 08:24 57.78062 20.53727 33949 ft 439 kts 223°
2026-02-18 08:24 57.73628 20.45853 33937 ft 440 kts 223°
2026-02-18 08:25 57.66952 20.34052 33934 ft 440 kts 223°
2026-02-18 08:26 57.62530 20.26265 33932 ft 440 kts 223°
2026-02-18 08:26 57.58075 20.18446 33925 ft 439 kts 223°
2026-02-18 08:27 57.53613 20.10656 33915 ft 440 kts 223°
2026-02-18 08:27 57.49148 20.02867 33902 ft 439 kts 223°
2026-02-18 08:28 57.44682 19.95115 33900 ft 439 kts 223°
2026-02-18 08:28 57.40209 19.87379 33889 ft 439 kts 223°
2026-02-18 08:29 57.35737 19.79667 33880 ft 439 kts 223°
2026-02-18 08:29 57.29012 19.68127 33887 ft 439 kts 223°
2026-02-18 08:30 57.24535 19.60476 33888 ft 438 kts 223°
2026-02-18 08:30 57.20061 19.52850 33889 ft 437 kts 223°
2026-02-18 08:31 57.15608 19.45297 33889 ft 437 kts 222°
2026-02-18 08:31 57.11120 19.37716 33889 ft 437 kts 222°
2026-02-18 08:32 57.06638 19.30160 33885 ft 437 kts 222°
2026-02-18 08:32 57.02156 19.22634 33890 ft 437 kts 222°
2026-02-18 08:33 56.95416 19.11367 33892 ft 436 kts 222°
2026-02-18 08:34 56.90955 19.03932 33880 ft 436 kts 222°
2026-02-18 08:34 56.86459 18.96466 33881 ft 437 kts 222°
2026-02-18 08:35 56.81952 18.89010 33881 ft 437 kts 222°
2026-02-18 08:35 56.77451 18.81588 33879 ft 436 kts 222°
2026-02-18 08:36 56.72950 18.74194 33880 ft 436 kts 222°
2026-02-18 08:36 56.68430 18.66787 33881 ft 436 kts 222°
2026-02-18 08:37 56.63913 18.59418 33880 ft 436 kts 222°
2026-02-18 08:37 56.57166 18.48458 33881 ft 435 kts 222°
2026-02-18 08:38 56.52648 18.41146 33881 ft 435 kts 222°
2026-02-18 08:38 56.48120 18.33840 33881 ft 435 kts 222°
2026-02-18 08:39 56.43597 18.26573 33887 ft 435 kts 222°
2026-02-18 08:39 56.39067 18.19312 33889 ft 435 kts 222°
2026-02-18 08:40 56.34565 18.12126 33888 ft 435 kts 222°
2026-02-18 08:40 56.30029 18.04905 33894 ft 435 kts 222°
2026-02-18 08:41 56.23205 17.94091 33883 ft 435 kts 222°
2026-02-18 08:42 56.18665 17.86920 33891 ft 435 kts 222°
2026-02-18 08:42 56.14887 17.80972 33891 ft 435 kts 222°
2026-02-18 08:43 56.10333 17.73823 33890 ft 435 kts 222°
2026-02-18 08:43 56.05033 17.65542 33885 ft 435 kts 222°
2026-02-18 08:44 56.01213 17.59595 33885 ft 435 kts 222°
2026-02-18 08:44 55.96643 17.52485 33893 ft 435 kts 222°
2026-02-18 08:45 55.92095 17.45437 33887 ft 435 kts 222°
2026-02-18 08:45 55.85223 17.34838 33887 ft 436 kts 222°
2026-02-18 08:46 55.80634 17.27795 33890 ft 436 kts 221°
2026-02-18 08:46 55.75371 17.22433 33898 ft 441 kts 200°
2026-02-18 08:47 55.69507 17.19207 33895 ft 441 kts 199°
2026-02-18 08:47 55.63666 17.15899 33892 ft 440 kts 204°
2026-02-18 08:48 55.58141 17.11277 33890 ft 439 kts 208°
2026-02-18 08:48 55.52689 17.06554 33892 ft 440 kts 208°
2026-02-18 08:49 55.44433 16.99485 33889 ft 440 kts 208°
2026-02-18 08:50 55.38924 16.94790 33888 ft 440 kts 208°
2026-02-18 08:50 55.33414 16.90114 33894 ft 440 kts 208°
2026-02-18 08:51 55.27895 16.85447 33889 ft 440 kts 208°
2026-02-18 08:51 55.22383 16.80792 33891 ft 440 kts 208°
2026-02-18 08:52 55.16864 16.76147 33899 ft 440 kts 208°
2026-02-18 08:52 55.11374 16.71540 33898 ft 441 kts 208°
2026-02-18 08:53 55.05845 16.66915 33900 ft 441 kts 208°
2026-02-18 08:53 54.97534 16.59994 33890 ft 441 kts 208°
2026-02-18 08:54 54.91991 16.55397 33886 ft 441 kts 208°
2026-02-18 08:54 54.86446 16.50799 33901 ft 441 kts 208°
2026-02-18 08:55 54.80929 16.46249 33910 ft 442 kts 208°
2026-02-18 08:55 54.75361 16.41674 33908 ft 442 kts 208°
2026-02-18 08:56 54.69799 16.37116 33908 ft 443 kts 208°
2026-02-18 08:56 54.64227 16.32560 33911 ft 442 kts 208°
2026-02-18 08:57 54.55864 16.25754 33909 ft 443 kts 208°
2026-02-18 08:58 54.50316 16.21251 33929 ft 443 kts 208°
2026-02-18 08:58 54.44734 16.16748 33939 ft 443 kts 208°
2026-02-18 08:59 54.39142 16.12253 33945 ft 443 kts 208°
2026-02-18 08:59 54.33565 16.07753 33937 ft 443 kts 208°
2026-02-18 09:00 54.27963 16.03289 33924 ft 444 kts 208°
2026-02-18 09:00 54.22363 15.98822 33923 ft 444 kts 208°
2026-02-18 09:01 54.16760 15.94351 33930 ft 444 kts 208°
2026-02-18 09:01 54.08361 15.87688 33930 ft 444 kts 208°
2026-02-18 09:02 54.02787 15.83287 33929 ft 444 kts 208°
2026-02-18 09:02 53.97182 15.78865 33931 ft 444 kts 208°
2026-02-18 09:03 53.91572 15.74460 33938 ft 444 kts 208°
2026-02-18 09:03 53.85946 15.70052 33946 ft 444 kts 208°
2026-02-18 09:04 53.80331 15.65669 33945 ft 445 kts 208°
2026-02-18 09:04 53.74712 15.61287 33959 ft 444 kts 209°
2026-02-18 09:05 53.66328 15.54751 33965 ft 445 kts 209°
2026-02-18 09:06 53.60710 15.50407 33955 ft 444 kts 209°
2026-02-18 09:06 53.55090 15.46071 33958 ft 445 kts 209°
2026-02-18 09:07 53.49461 15.41746 33958 ft 445 kts 209°
2026-02-18 09:07 53.43824 15.37432 33959 ft 445 kts 209°
2026-02-18 09:08 53.38187 15.33116 33960 ft 446 kts 209°
2026-02-18 09:08 53.32582 15.28842 33960 ft 446 kts 209°
2026-02-18 09:09 53.26932 15.24550 33970 ft 446 kts 209°
2026-02-18 09:09 53.18443 15.18125 33968 ft 446 kts 209°
2026-02-18 09:10 53.12773 15.13853 33971 ft 447 kts 210°
2026-02-18 09:10 53.07100 15.09585 33964 ft 447 kts 210°
2026-02-18 09:11 53.01461 15.05353 33966 ft 447 kts 210°
2026-02-18 09:11 52.95784 15.01121 33966 ft 447 kts 210°
2026-02-18 09:12 52.90124 14.96882 33972 ft 447 kts 210°
2026-02-18 09:12 52.84438 14.92661 33967 ft 448 kts 210°
2026-02-18 09:13 52.75913 14.86339 33969 ft 448 kts 210°
2026-02-18 09:14 52.70192 14.82234 33969 ft 450 kts 207°
2026-02-18 09:14 52.64364 14.78606 33974 ft 450 kts 206°
2026-02-18 09:15 52.58500 14.74960 33968 ft 450 kts 207°
2026-02-18 09:15 52.52640 14.71289 33969 ft 451 kts 207°
2026-02-18 09:16 52.46768 14.67626 33969 ft 451 kts 207°
2026-02-18 09:16 52.40898 14.63972 33972 ft 451 kts 207°
2026-02-18 09:17 52.35025 14.60330 33967 ft 452 kts 207°
2026-02-18 09:17 52.26231 14.54889 33971 ft 452 kts 207°
2026-02-18 09:18 52.20345 14.51264 33972 ft 452 kts 207°
2026-02-18 09:18 52.14444 14.47640 33972 ft 453 kts 207°
2026-02-18 09:19 52.08546 14.44027 33971 ft 453 kts 207°
2026-02-18 09:19 52.02646 14.40425 33971 ft 453 kts 207°
2026-02-18 09:20 51.96736 14.36826 33969 ft 454 kts 208°
2026-02-18 09:20 51.90823 14.33232 33971 ft 454 kts 208°
2026-02-18 09:21 51.81931 14.27853 33970 ft 455 kts 208°
2026-02-18 09:22 51.76027 14.24293 33959 ft 454 kts 207°
2026-02-18 09:22 51.67134 14.18952 33961 ft 455 kts 207°
2026-02-18 09:23 51.61195 14.15400 33951 ft 453 kts 207°
2026-02-18 09:23 51.55282 14.11862 33946 ft 453 kts 207°
2026-02-18 09:24 51.49358 14.08332 33947 ft 453 kts 207°
2026-02-18 09:24 51.43475 14.04844 33941 ft 454 kts 207°
2026-02-18 09:25 51.34593 13.99589 33938 ft 453 kts 207°
2026-02-18 09:26 51.28682 13.96098 33939 ft 452 kts 208°
2026-02-18 09:26 51.22770 13.92619 33948 ft 451 kts 208°
2026-02-18 09:27 51.16887 13.89166 33949 ft 451 kts 208°
2026-02-18 09:27 51.10989 13.85722 33937 ft 451 kts 208°
2026-02-18 09:28 51.05095 13.82284 33932 ft 449 kts 208°
2026-02-18 09:28 50.99229 13.78866 33931 ft 449 kts 208°
2026-02-18 09:29 50.93360 13.75459 33930 ft 449 kts 208°
2026-02-18 09:29 50.84604 13.70396 33929 ft 448 kts 208°
2026-02-18 09:30 50.78745 13.67019 33932 ft 448 kts 208°
2026-02-18 09:30 50.72892 13.63661 33929 ft 449 kts 207°
2026-02-18 09:31 50.66677 13.61552 33933 ft 461 kts 197°
2026-02-18 09:31 50.60337 13.60011 33929 ft 461 kts 197°
2026-02-18 09:32 50.55073 13.58705 33933 ft 461 kts 198°
2026-02-18 09:32 50.48740 13.57112 33926 ft 460 kts 198°
2026-02-18 09:33 50.39253 13.54726 33919 ft 460 kts 198°
2026-02-18 09:34 50.32937 13.53143 33920 ft 460 kts 198°
2026-02-18 09:34 50.26652 13.51577 33920 ft 460 kts 198°
2026-02-18 09:35 50.20329 13.50003 33920 ft 460 kts 198°
2026-02-18 09:35 50.13998 13.48428 33930 ft 460 kts 198°
2026-02-18 09:36 50.07671 13.46863 33930 ft 460 kts 198°
2026-02-18 09:36 50.01338 13.45298 33932 ft 460 kts 198°
2026-02-18 09:37 49.95023 13.43743 33942 ft 459 kts 198°
2026-02-18 09:37 49.85567 13.41419 33947 ft 458 kts 198°
2026-02-18 09:38 49.79317 13.39891 33952 ft 458 kts 198°
2026-02-18 09:38 49.73016 13.38352 33965 ft 459 kts 198°
2026-02-18 09:39 49.66689 13.36814 33964 ft 460 kts 198°
2026-02-18 09:39 49.60360 13.35277 33963 ft 460 kts 198°
2026-02-18 09:40 49.54029 13.33743 33964 ft 460 kts 198°
2026-02-18 09:40 49.47739 13.32215 33959 ft 460 kts 198°
2026-02-18 09:41 49.38266 13.29946 33964 ft 458 kts 198°
2026-02-18 09:42 49.31960 13.28425 33968 ft 459 kts 198°
2026-02-18 09:42 49.25700 13.26720 33973 ft 450 kts 205°
2026-02-18 09:42 49.22811 13.25100 33966 ft 434 kts 217°
2026-02-18 09:43 49.20297 13.22695 33968 ft 422 kts 225°
2026-02-18 09:43 49.15564 13.17414 33969 ft 421 kts 226°
2026-02-18 09:44 49.10789 13.12193 33971 ft 422 kts 225°
2026-02-18 09:44 49.06017 13.07064 33972 ft 422 kts 225°
2026-02-18 09:45 49.01211 13.01919 33970 ft 422 kts 225°
2026-02-18 09:45 48.94006 12.94229 33987 ft 421 kts 225°
2026-02-18 09:46 48.89206 12.89122 33992 ft 420 kts 225°
2026-02-18 09:46 48.84412 12.84027 33991 ft 420 kts 225°
2026-02-18 09:47 48.79620 12.78953 34001 ft 420 kts 225°
2026-02-18 09:47 48.74821 12.73886 34002 ft 420 kts 225°
2026-02-18 09:48 48.70069 12.68870 34002 ft 418 kts 225°
2026-02-18 09:48 48.65285 12.63841 34003 ft 418 kts 225°
2026-02-18 09:49 48.58115 12.56318 34010 ft 418 kts 225°
2026-02-18 09:50 48.53345 12.51334 34011 ft 416 kts 225°
2026-02-18 09:50 48.48584 12.46367 34013 ft 416 kts 225°
2026-02-18 09:51 48.43817 12.41403 34013 ft 416 kts 225°
2026-02-18 09:51 48.39053 12.36455 34014 ft 415 kts 225°
2026-02-18 09:52 48.34303 12.31536 34013 ft 414 kts 225°
2026-02-18 09:52 48.29589 12.26660 34015 ft 414 kts 225°
2026-02-18 09:53 48.24840 12.21766 34011 ft 414 kts 225°
2026-02-18 09:53 48.17727 12.14471 34025 ft 414 kts 224°
2026-02-18 09:54 48.15152 12.12380 34020 ft 429 kts 213°
2026-02-18 09:54 48.12279 12.10943 34023 ft 439 kts 207°
2026-02-18 09:54 48.06360 12.08521 34029 ft 441 kts 206°
2026-02-18 09:55 48.00460 12.06060 34015 ft 440 kts 207°
2026-02-18 09:55 47.94568 12.03567 34017 ft 440 kts 207°
2026-02-18 09:56 47.88688 12.01084 34018 ft 438 kts 207°
2026-02-18 09:56 47.82802 11.98610 34019 ft 439 kts 207°
2026-02-18 09:57 47.73993 11.94896 34020 ft 438 kts 207°
2026-02-18 09:58 47.68199 11.92199 34018 ft 436 kts 209°
2026-02-18 09:58 47.62459 11.89469 34019 ft 436 kts 209°
2026-02-18 09:59 47.56668 11.86728 34011 ft 437 kts 209°
2026-02-18 09:59 47.50861 11.83983 34010 ft 437 kts 209°
2026-02-18 10:00 47.45053 11.81248 34004 ft 437 kts 208°
2026-02-18 10:00 47.39253 11.78521 34006 ft 437 kts 208°
2026-02-18 10:01 47.33293 11.76287 34021 ft 449 kts 200°
2026-02-18 10:01 47.24060 11.74179 34010 ft 448 kts 199°
2026-02-18 10:02 47.17895 11.72757 34015 ft 448 kts 200°
2026-02-18 10:02 47.11697 11.71325 34030 ft 451 kts 199°
2026-02-18 10:03 47.05498 11.69892 34015 ft 451 kts 199°
2026-02-18 10:03 46.99540 11.67656 34024 ft 432 kts 213°
2026-02-18 10:04 46.94107 11.64003 34025 ft 428 kts 216°
2026-02-18 10:04 46.88706 11.60332 34022 ft 427 kts 216°
2026-02-18 10:05 46.80597 11.54911 34007 ft 429 kts 215°
2026-02-18 10:06 46.75174 11.51302 34003 ft 428 kts 215°
2026-02-18 10:06 46.69865 11.47553 34008 ft 419 kts 223°
2026-02-18 10:06 46.67608 11.45018 34008 ft 402 kts 234°
2026-02-18 10:07 46.65699 11.42083 34012 ft 397 kts 238°
2026-02-18 10:07 46.62015 11.36076 34023 ft 397 kts 238°
2026-02-18 10:08 46.58303 11.30124 34024 ft 397 kts 237°
2026-02-18 10:08 46.54568 11.24193 34048 ft 398 kts 237°
2026-02-18 10:09 46.50826 11.18259 34042 ft 398 kts 237°
2026-02-18 10:09 46.45211 11.09388 34019 ft 396 kts 237°
2026-02-18 10:10 46.41503 11.03550 33999 ft 397 kts 237°
2026-02-18 10:10 46.37754 10.97657 33964 ft 398 kts 237°
2026-02-18 10:11 46.33988 10.91745 33935 ft 399 kts 237°
2026-02-18 10:11 46.30395 10.85695 33910 ft 388 kts 245°
2026-02-18 10:12 46.27904 10.78893 33902 ft 381 kts 252°
2026-02-18 10:12 46.25562 10.72056 33904 ft 382 kts 251°
2026-02-18 10:13 46.21979 10.61762 33901 ft 382 kts 251°
2026-02-18 10:14 46.19591 10.54944 33532 ft 379 kts 251°
2026-02-18 10:14 46.18396 10.51531 33279 ft 381 kts 251°
2026-02-18 10:14 46.17199 10.48124 33032 ft 382 kts 251°
2026-02-18 10:14 46.15997 10.44710 32775 ft 381 kts 251°
2026-02-18 10:15 46.14798 10.41299 32513 ft 381 kts 251°
2026-02-18 10:15 46.13599 10.37899 32262 ft 380 kts 250°
2026-02-18 10:15 46.12398 10.34506 31857 ft 378 kts 250°
2026-02-18 10:15 46.11201 10.31125 31354 ft 378 kts 250°
2026-02-18 10:16 46.10010 10.27764 30821 ft 376 kts 250°
2026-02-18 10:16 46.08823 10.24406 30317 ft 375 kts 250°
2026-02-18 10:16 46.07638 10.21070 29800 ft 373 kts 250°
2026-02-18 10:16 46.06459 10.17751 29269 ft 371 kts 250°
2026-02-18 10:17 46.05298 10.14489 28748 ft 371 kts 250°
2026-02-18 10:17 46.03015 10.07872 27711 ft 367 kts 251°
2026-02-18 10:17 46.01904 10.04562 27190 ft 367 kts 251°
2026-02-18 10:18 46.00793 10.01255 26650 ft 367 kts 251°
2026-02-18 10:18 45.99685 9.97958 26102 ft 365 kts 250°
2026-02-18 10:18 45.98954 9.95782 25766 ft 364 kts 250°
2026-02-18 10:18 45.97854 9.92515 25255 ft 361 kts 250°
2026-02-18 10:19 45.96763 9.89286 24747 ft 359 kts 250°
2026-02-18 10:19 45.95672 9.86066 24225 ft 357 kts 250°
2026-02-18 10:19 45.94587 9.82866 23694 ft 354 kts 250°
2026-02-18 10:19 45.93512 9.79697 23168 ft 352 kts 250°
2026-02-18 10:20 45.92443 9.76549 22643 ft 349 kts 250°
2026-02-18 10:20 45.91384 9.73424 22117 ft 346 kts 250°
2026-02-18 10:20 45.90329 9.70323 21597 ft 344 kts 250°
2026-02-18 10:20 45.89276 9.67252 21082 ft 342 kts 250°
2026-02-18 10:21 45.88235 9.64191 20552 ft 340 kts 250°
2026-02-18 10:21 45.86176 9.58158 19511 ft 336 kts 250°
2026-02-18 10:21 45.85149 9.55153 18967 ft 334 kts 250°
2026-02-18 10:22 45.84124 9.52178 18461 ft 332 kts 250°
2026-02-18 10:22 45.83092 9.49182 17920 ft 329 kts 250°
2026-02-18 10:22 45.82098 9.46283 17421 ft 327 kts 250°
2026-02-18 10:22 45.81093 9.43360 16870 ft 326 kts 250°
2026-02-18 10:23 45.80090 9.40451 16344 ft 324 kts 249°
2026-02-18 10:23 45.79096 9.37567 15806 ft 322 kts 249°
2026-02-18 10:23 45.78101 9.34691 15318 ft 321 kts 248°
2026-02-18 10:23 45.77060 9.31857 14794 ft 322 kts 241°
2026-02-18 10:24 45.75543 9.29471 14276 ft 329 kts 223°
2026-02-18 10:24 45.74058 9.27946 13838 ft 331 kts 218°
2026-02-18 10:24 45.72079 9.26075 13209 ft 333 kts 217°
2026-02-18 10:24 45.70173 9.24270 12590 ft 334 kts 217°
2026-02-18 10:25 45.68245 9.22418 11964 ft 335 kts 217°
2026-02-18 10:25 45.64384 9.18678 10713 ft 335 kts 216°
2026-02-18 10:25 45.62455 9.16799 10167 ft 332 kts 216°
2026-02-18 10:26 45.60585 9.14956 9924 ft 321 kts 216°
2026-02-18 10:26 45.58785 9.13172 9758 ft 308 kts 215°
2026-02-18 10:26 45.57044 9.11489 9601 ft 296 kts 215°
2026-02-18 10:26 45.55367 9.09876 9466 ft 285 kts 215°
2026-02-18 10:27 45.53740 9.08306 9165 ft 281 kts 214°
2026-02-18 10:27 45.52125 9.06750 8799 ft 279 kts 214°
2026-02-18 10:27 45.50517 9.05199 8419 ft 277 kts 214°
2026-02-18 10:27 45.48921 9.03657 8030 ft 277 kts 214°
2026-02-18 10:28 45.47468 9.01887 7640 ft 275 kts 233°
2026-02-18 10:28 45.46482 8.99609 7211 ft 273 kts 242°
2026-02-18 10:28 45.45611 8.97215 6703 ft 272 kts 243°
2026-02-18 10:28 45.44761 8.94824 6202 ft 270 kts 243°
2026-02-18 10:29 45.43915 8.92448 5708 ft 268 kts 243°
2026-02-18 10:29 45.42361 8.87650 4705 ft 265 kts 257°
2026-02-18 10:29 45.42058 8.85093 4296 ft 260 kts 263°
2026-02-18 10:30 45.42066 8.82570 3943 ft 253 kts 284°
2026-02-18 10:30 45.42827 8.80388 3619 ft 245 kts 312°
2026-02-18 10:30 45.44080 8.78787 3351 ft 241 kts 322°
2026-02-18 10:30 45.45456 8.77458 3083 ft 237 kts 333°
2026-02-18 10:31 45.46957 8.76625 2953 ft 226 kts 346°
2026-02-18 10:31 45.48443 8.76264 2947 ft 208 kts 354°
2026-02-18 10:31 45.49799 8.75946 2983 ft 188 kts 349°
2026-02-18 10:31 45.51073 8.75592 2795 ft 185 kts 350°
2026-02-18 10:32 45.52333 8.75245 2560 ft 184 kts 350°
2026-02-18 10:32 45.53584 8.74900 2316 ft 181 kts 350°
2026-02-18 10:32 45.54781 8.74570 2075 ft 173 kts 350°
2026-02-18 10:32 45.55919 8.74256 1849 ft 159 kts 351°
2026-02-18 10:33 45.56968 8.73969 1580 ft 147 kts 351°
2026-02-18 10:33 45.58947 8.73427 1213 ft 144 kts 350°
2026-02-18 10:33 45.59930 8.73140 1015 ft 143 kts 351°
2026-02-18 10:34 45.60914 8.72880 861 ft 144 kts 350°
2026-02-18 10:34 45.61892 8.72599 748 ft 137 kts 354°
2026-02-18 10:34 45.62673 8.72390 743 ft 86 kts 349°
2026-02-18 10:34 45.63086 8.72269 746 ft 18 kts 335°
2026-02-18 10:35 45.63166 8.72151 743 ft 18 kts 320°
2026-02-18 10:35 45.63235 8.72066 743 ft 11 kts 319°
2026-02-18 10:35 45.63303 8.71975 741 ft 16 kts 299°
2026-02-18 10:35 45.63288 8.71862 740 ft 10 kts 204°
2026-02-18 10:36 45.63198 8.71878 742 ft 16 kts 169°
2026-02-18 10:36 45.63112 8.71901 742 ft 2 kts 169°
2026-02-18 10:36 45.63105 8.71903 742 ft 4 kts 169°
2026-02-18 10:36 45.63094 8.71906 742 ft 6 kts 169°
2026-02-18 10:37 45.62943 8.71585 741 ft 18 kts 258°
2026-02-18 10:37 45.62927 8.71471 741 ft 12 kts 259°
2026-02-18 10:38 45.62883 8.71422 741 ft 11 kts 166°
2026-02-18 10:38 45.62833 8.71439 741 ft 3 kts 171°
2026-02-18 10:38 45.62825 8.71441 742 ft 0 kts 171°